Regional Weather Roundup
Issued by NWS Upton, NY

Current Version | Previous Version | Text Only | Print | Product List | Glossary On
Versions: 1 2 3 4 5 6 7 8 9 10 11 12 13 14 15 16 17 18 19 20 21 22 23 24 25 26 27 28 29 30 31 32 33 34 35 36 37 38 39 40 41 42 43 44 45 46 47 48 49 50
000
ASUS41 KOKX 300905
RWROKX
NYCRWROKX ALL

REGIONAL WEATHER ROUNDUP
NATIONAL WEATHER SERVICE NEW YORK NY
500 AM EDT SAT AUG 30 2014

NOTE: "FAIR" INDICATES FEW OR NO CLOUDS BELOW 12,000 FEET WITH NO
SIGNIFICANT WEATHER AND/OR OBSTRUCTIONS TO VISIBILITY.

NYZ071-072-176-178-NJZ106-104-301000-
NEW YORK CITY METRO AREA


CITY           SKY/WX    TMP DP  RH WIND       PRES   REMARKS
CENTRAL PARK   CLOUDY    68  54  60 VRB3      30.28S
LAGUARDIA APRT MOCLDY    68  56  65 CALM      30.26R
KENNEDY INTL   MOCLDY    66  55  67 S6        30.27R
NEWARK/LIBERTY MOCLDY    63  55  75 W3        30.26R
BRNX BOT. GARD   N/A     61  55  82 NE1       30.27R
TETERBORO      PTCLDY    60  54  80 NW3       30.25S
$$

NYZ177-179-078>081-301000-
LONG ISLAND NEW YORK

CITY           SKY/WX    TMP DP  RH WIND       PRES   REMARKS
FARMINGDALE    PTCLDY    59  55  87 N3        30.26S
ISLIP          CLEAR     60  56  86 CALM      30.25S
SHIRLEY        CLEAR     54  52  93 CALM      30.28R
WESTHAMPTON    CLEAR     49  45  86 CALM      30.29S
MONTAUK POINT    N/A     58  53  84 CALM      30.30R
$$

NYZ052-065-067-301000-
HUDSON VALLEY

CITY           SKY/WX    TMP DP  RH WIND       PRES   REMARKS
WHITE PLAINS   PTCLDY    57  53  86 CALM      30.26S
NEWBURGH       NOT AVBL
MONTGOMERY     CLEAR     50  48  93 CALM      30.27R
POUGHKEEPSIE   CLEAR     55  52  89 CALM      30.26S
ALBANY         CLEAR     58  54  86 S5        30.25S
$$

NJZ001-105-106-008-010-013-015-019>022-104-301000-
NEW JERSEY

CITY           SKY/WX    TMP DP  RH WIND       PRES   REMARKS
NEWARK/LIBERTY MOCLDY    63  55  75 W3        30.26R
TETERBORO      PTCLDY    60  54  80 NW3       30.25S
CALDWELL       CLEAR     55  52  89 CALM      30.27R
MORRISTOWN     FOG       50  46  87 CALM      30.27R VSB 1
SOMERVILLE     PTCLDY    53  50  89 CALM      30.25R
LINDEN         FAIR      64  58  80 CALM      30.28R
SUSSEX         CLEAR     52  49  89 CALM      30.27S FOG
ANDOVER          N/A     53  51  93 CALM      30.27S
TRENTON        CLEAR     57  54  89 N3        30.25S
MILLVILLE      CLEAR     55  54  96 CALM      30.24S
ATLANTIC CITY  PTCLDY    56  54  93 CALM      30.25R
WRIGHTSTOWN    CLEAR     54  54  99 NE2       30.24R
TOMS RIVER     CLEAR     50  46  87 CALM      30.26R
BELMAR         CLEAR     55  48  76 CALM      30.26R
$$

PAZ047>061-062-071-301000-
EASTERN PENNSYLVANIA

CITY           SKY/WX    TMP DP  RH WIND       PRES   REMARKS
PHILADELPHIA   PTCLDY    62  58  86 CALM      30.25S
ALLENTOWN      CLEAR     55  53  93 N3        30.26S
SCRANTON       CLOUDY    63  57  81 CALM      30.23F
$$

CTZ002-004>006-009-010-012-RIZ004-006-007-MAZ004-011-015-301000-
SOUTHERN NEW ENGLAND
 IN CT

CITY           SKY/WX    TMP DP  RH WIND       PRES   REMARKS
BRADLEY INTL   CLEAR     54  51  90 CALM      30.27R
HARTFORD       CLEAR     55  52  89 CALM      30.27S
DANBURY        CLEAR     53  50  89 CALM      30.29S
WTRBRY/OXFORD  PTCLDY    55  52  88 CALM      30.30R
BRIDGEPORT     CLEAR     67  59  75 S6        30.27S
MERIDEN        CLEAR     52  50  93 CALM      30.28S
NEW HAVEN      PTCLDY    67  59  75 S7        30.27S
CHESTER        FAIR      55  55 100 CALM      30.29S
GROTON         CLEAR     54  54 100 CALM      30.28R
WILLIMANTIC    PTCLDY    52  50  93 CALM      30.30R

 IN RI

CITY           SKY/WX    TMP DP  RH WIND       PRES   REMARKS
PROVIDENCE     CLEAR     56  54  93 W3        30.30S
BLOCK ISLAND   CLEAR     61  55  82 SE3       30.29R
WESTERLY       CLEAR     52  50  93 CALM      30.29S

 IN MA

CITY           SKY/WX    TMP DP  RH WIND       PRES   REMARKS
BOSTON         PTCLDY    58  55  90 S6        30.29S
WORCESTER      CLEAR     56  54  93 SW8       30.30R
WESTFIELD      CLEAR     54  51  90 CALM      30.28R
PROVINCETOWN   CLEAR     48  45  87 S5        30.31S
NANTUCKET      CLEAR     50  44  80 E5        30.31S
$$

ANZ330-335-338-340-345-350-353-355-301000-
COASTAL MARINE OBSERVATIONS


STATION/POSITION TIME  SKY/WX   TEMP    WIND        PRES    VSBY  WAVE
                                AIR SEA DIR/SP/G                  HT/PER
                 (UTC)          (F)     (DEG/KT/KT) (MB)    (MI)  (FT/S)
NY HARB ENTRANCE NOT AVBL
4S FIRE IS       NOT AVBL
23SW MTP         0900                                 N/A           3/ 8
HUDSON CANYON    0900            70 72  150/  8/ 10 1024.3          3/ 9
EXECUTION ROCKS  0900            67 73  120/  6/  6   N/A
WESTERN LI SOUND 0900            68     140/  4/  6   N/A           0
CENTRAL LI SOUND 0900            68 72  170/  8/ 12   N/A           1
EASTERN LI SOUND 0800            66 68  170/  6/  8   N/A
ROBBINS REEF     0900            68     220/  6/  7   N/A
$$


>>>>>>>>>>>>>>>>>>>>>>>>>>>> KEY <<<<<<<<<<<<<<<<<<<<<<<<<<<
>                                                          <
>     SKY/WX - SKY CONDITION/PRESENT WEATHER               <
>     TMP    - TEMPERATURE IN FAHRENHEIT                   <
>     DP     - DEWPOINT IN FAHRENHEIT                      <
>     RH     - RELATIVE HUMIDITY IN PERCENT                <
>     WIND   - DIRECTION AND SPEED IN MPH                  <
>     PRES   - MEAN SEA LEVEL PRESSURE IN INCHES OF HG     <
>     WCI    - WIND CHILL INDEX                            <
>     VSB    - VISIBILITY IN MILES                         <
>     HX     - HEAT INDEX                                  <
>     TC     - TEMPERATURE IN CELSIUS                      <
>     VRB    - VARIABLE WIND DIRECTION                     <
>                                                          <
>>>>>>>>>>>>>>>>>>>>>>>>>>>> KEY <<<<<<<<<<<<<<<<<<<<<<<<<<<





USA.gov is the U.S. government's official web portal to all federal, state and local government web resources and services.